Regional Weather Roundup
Issued by NWS Upton, NY

Current Version | Previous Version | Graphics & Text | Print | Product List | Glossary Off
Versions: 1 2 3 4 5 6 7 8 9 10 11 12 13 14 15 16 17 18 19 20 21 22 23 24 25 26 27 28 29 30 31 32 33 34 35 36 37 38 39 40 41 42 43 44 45 46 47 48 49 50
078 ASUS41 KOKX 100508 RWROKX REGIONAL WEATHER ROUNDUP NATIONAL WEATHER SERVICE NEW YORK NY 1200 AM EST SAT DEC 10 2016 NOTE: "FAIR" INDICATES FEW OR NO CLOUDS BELOW 12,000 FEET WITH NO SIGNIFICANT WEATHER AND/OR OBSTRUCTIONS TO VISIBILITY. NYZ071-072-176-178-NJZ106-104-100600- NEW YORK CITY METRO AREA CITY SKY/WX TMP DP RH WIND PRES REMARKS Central Park CLEAR 30 13 49 W8 30.29F WCI 22 Wall St Helipt CLEAR 32 17 54 W8 30.29F WCI 25 Bronx Bot Gard NOT AVBL LaGuardia APRT CLEAR 32 15 49 NW14 30.28F WCI 22 Kennedy INTL CLEAR 31 11 43 NW13 30.29F WCI 21 Breezy Point N/A N/A N/A N/A NW10G16 N/A Newark/Liberty CLEAR 29 14 53 W8 30.29F WCI 21 Teterboro CLEAR 29 12 49 W5 30.28F WCI 24 $$ NYZ177-179-078>081-100600- LONG ISLAND NEW YORK CITY SKY/WX TMP DP RH WIND PRES REMARKS Jones Beach N/A N/A N/A N/A NW13 N/A Matinecock PT N/A 32 N/A N/A NW20G29 N/A WCI 20 Farmingdale CLEAR 29 13 51 NW13G18 30.26F WCI 19 MacArthur/ISP CLEAR 28 13 53 NW10 30.24F WCI 19 Shirley CLEAR 27 14 58 NW9 30.25F WCI 18 Westhampton NOT AVBL Southampton NOT AVBL Bridgehampton NOT AVBL East Hampton N/A 28 12 50 NW10G17 30.23F WCI 19 Montauk N/A 30 13 49 NW15G26 30.24R WCI 19 $$ NYZ052-065-067-100600- HUDSON VALLEY CITY SKY/WX TMP DP RH WIND PRES REMARKS White Plains CLEAR 27 14 58 NW13G22 30.23F WCI 16 Newburgh CLEAR 21 16 79 W12 30.26S WCI 9 Montgomery CLEAR 23 14 68 VRB3 30.25F Poughkeepsie MOCLDY 23 13 65 W5 30.26S WCI 17 Albany PTCLDY 19 11 70 W6 30.26S WCI 11 $$ NJZ001-105-106-008-010-013-015-019>022-104-100600- NEW JERSEY CITY SKY/WX TMP DP RH WIND PRES REMARKS Newark/Liberty CLEAR 29 14 53 W8 30.29F WCI 21 Teterboro CLEAR 29 12 49 W5 30.28F WCI 24 Caldwell CLEAR 28 13 53 VRB5 30.29F WCI 23 Somerville CLEAR 25 14 63 CALM 30.27F Linden N/A 28 14 55 NW3 30.30S Sussex CLEAR 24 14 65 W5 30.25F WCI 18 Andover N/A 23 14 68 CALM 30.26F Trenton CLEAR 28 20 71 W3 30.30S Millville CLEAR 28 19 69 W8 30.37R WCI 20 Atlantic City CLEAR 29 17 61 W8 30.35R WCI 21 Wrightstown CLEAR 29 21 72 NW5 30.28S WCI 23 Toms River CLEAR 26 21 81 W6 30.32R WCI 19 Belmar CLEAR 26 17 68 W6 30.30S WCI 19 $$ PAZ047>061-062-071-100600- EASTERN PENNSYLVANIA CITY SKY/WX TMP DP RH WIND PRES REMARKS Philadelphia PTCLDY 30 19 63 W9 30.35R WCI 22 Allentown CLEAR 20 16 84 SW6 30.30S WCI 12 Scranton MOCLDY 25 14 63 W6 30.26R WCI 18 $$ CTZ002-004>006-009-010-012-RIZ004-006-007-MAZ004-011-015-100600- SOUTHERN NEW ENGLAND IN CT CITY SKY/WX TMP DP RH WIND PRES REMARKS Bradley INTL CLEAR 22 9 57 NW5 30.23R WCI 16 Hartford CLEAR 26 11 52 NW5 30.25R WCI 20 Danbury CLEAR 24 11 57 NW3 30.25S Wtrbury/Oxford CLEAR 25 10 54 NW6 30.21F WCI 18 Bridgeport CLEAR 28 12 51 W6 30.26S WCI 22 Meriden CLEAR 27 10 49 NW7 30.25R WCI 19 New Haven CLEAR 27 13 55 NW8 30.26R WCI 19 Chester N/A 25 10 54 NW9 30.22R WCI 15 Groton CLEAR 29 12 49 NW8 30.23R WCI 21 Wilimantic CLEAR 27 9 46 NW5 30.22S WCI 22 IN RI CITY SKY/WX TMP DP RH WIND PRES REMARKS Providence PTCLDY 24 7 48 W5 30.21R WCI 18 Block Island PTCLDY 28 13 53 NW13G24 30.22R WCI 17 Westerly CLEAR 27 9 46 W5 30.23R WCI 22 IN MA CITY SKY/WX TMP DP RH WIND PRES REMARKS Boston CLEAR 25 11 55 NW16 30.19R WCI 12 Worcester CLEAR 20 4 50 NW14G20 30.13S WCI 7 Westfield CLEAR 22 12 65 N7 30.20F WCI 13 Provincetown CLOUDY 29 15 56 NW18G28 30.16R WCI 16 Nantucket CLOUDY 30 12 47 NW14G21 30.17R WCI 19 $$ ANZ330-335-338-340-345-350-353-355-100600- COASTAL MARINE OBSERVATIONS STATION/POSITION TIME SKY/WX TEMP WIND PRES VSBY WAVE AIR SEA DIR/SP/G HT/PER (UTC) (F) (DEG/KT/KT) (MB) (MI) (FT/S) NY HARB ENTRANCE 0350 35 51 310/ 23/ 31 1025.1 4/ 5 20 S FIRE ISLAND 0350 35 52 320/ 25/ 31 1024.7 6/ 6 GREAT SOUTH BAY 0415 31 40 N/A 23 SSW MONTAUK P 0350 34 54 300/ 21/ 29 1023.9 5/ 5 15 E BARNEGAT LI 0430 51 N/A 5/ 4 HUDSON CANYON 0350 39 56 1023.6 9/ 8 KINGS POINT 0442 31 45 1025.0 EXECUTION ROCKS 0445 31 300/ 10/ 16 N/A CENTRAL LI SOUND 0430 31 49 310/ 17/ 23 N/A 3/ 4 EASTERN LI SOUND NOT AVBL ROBBINS REEF 0448 31 290/ 13/ 16 1025.7 $$ >>>>>>>>>>>>>>>>>>>>>>>>>>>> KEY <<<<<<<<<<<<<<<<<<<<<<<<<<< > < > SKY/WX - Sky Condition/Present Weather < > TMP - Temperature in Fahrenheit < > DP - Dew Point in Fahrenheit < > RH - Relative Humidity in Percent < > WIND - Direction (from) and Speed in MPH < > PRES - Mean Sea Level Pressure (inches of Hg) < > WCI - Wind Chill Index < > VSB - VISIBILITY IN MILES < > HX - HEAT INDEX < > TC - TEMPERATURE IN CELSIUS < > VRB - VARIABLE WIND DIRECTION < > < >>>>>>>>>>>>>>>>>>>>>>>>>>>> KEY <<<<<<<<<<<<<<<<<<<<<<<<<<<

USA.gov is the U.S. government's official web portal to all federal, state and local government web resources and services.